www.pogodaiklimat.ru

Погода и климат >> Архив погоды >> Ливия >> Куфра


ПОГОДА в Куфре

  • Прогноз погоды в Куфре
  • Монитор погоды в Куфре

АРХИВ ПОГОДЫ в Куфре

Время (UTC), дата Ветер
(напр.,м/с)
 
Видим.   Явления Облачность Т
(С)
Тd
(С)
f
(%)
Тe
(С)
Тes
(С)
Комфортность P
(гПа)
Po
(гПа)
Тmin
(С)
Tmax
(С)
R
(мм)
R24
(мм)
S
(см)
15 15.05 З 10
{19}
н/о н/о +38.4 -3.5 7 +34 +34 очень
жарко
1007.0 960.9
18 15.05 СВ 6
{19}
н/о н/о +34.2 +1.8 13 +31 +31 жарко 1009.4 961.9 +41.6
09 16.05 В 6 н/о н/о +29.0 +7.0 25 +28 +28 жарко 1014.2 965.7
09 17.05 В 7 н/о н/о +31.5 -2.5 11 +28 +28 жарко 1013.9 965.8
12 17.05 В 4 н/о н/о +35.8 -0.6 10 +32 +32 жарко 1011.7 964.3
15 17.05 В 3 н/о н/о +36.0 -0.4 10 +32 +32 жарко 1009.9 962.6
18 17.05 ЮВ 4 н/о н/о +32.6 -1.7 11 +29 +29 жарко 1011.1 963.3 +36.6
21 17.05 В 4 н/о н/о +28.9 -3.4 12 +26 +26 жарко 1013.0 964.5
00 18.05 В 4 н/о н/о +25.6 -4.9 13 +23 +23 комфорт 1012.3 963.3
03 18.05 В 4 н/о н/о +23.5 -4.7 15 +22 +22 комфорт 1012.6 963.2
06 18.05 В 4 н/о н/о +26.0 -3.6 14 +24 +24 комфорт 1013.7 964.7 +22.4
09 18.05 ЮВ 7 н/о н/о +35.0 -2.6 9 +31 +31 жарко 1012.9 965.3
12 18.05 В 4 20 км ясно +38.0 -2.0 8 +34 +47 очень
жарко
963.7
15 18.05 В 5 20 км ясно +38.2 -1.9 8
18 18.05 СВ 2 н/о н/о +34.4 -1.6 10 +31 +31 жарко 1010.4 962.9 +39.0
21 18.05 СВ 5 н/о н/о +31.2 -4.0 10 +28 +28 жарко 1011.7 963.6
00 19.05 СВ 5 н/о н/о +27.7 -5.5 11 +25 +25 комфорт 1011.6 963.0
03 19.05 В 3 н/о н/о +24.6 -5.7 13 +22 +22 комфорт 1012.4 963.2
06 19.05 В 3 н/о н/о +28.1 -4.0 12 +25 +25 комфорт 1013.5 964.8 +24.0
09 19.05 Ю 3 20 км ясно +37.3 -2.2 8 +33 +51 опасность
солнечного
удара
964.7
12 19.05 Ю 2 н/о н/о +41.5 -1.2 7 +38 +38 очень
жарко
1010.1 963.6
15 19.05 штиль 0 20 км ясно +40.7 -1.0 7 +37 +43 очень
жарко
962.2
18 19.05 В 1 н/о н/о +35.6 -2.2 9 +32 +32 жарко 1010.4 963.0 +42.0
21 19.05 штиль 0 10 км ясно +34.7 -2.7 9 +31 +31 жарко 1010.0 962.4
00 20.05 В 4 н/о н/о +27.9 -6.6 10 +25 +25 комфорт 1012.5 963.8
03 20.05 В 4 н/о н/о +25.8 -6.9 11 +23 +23 комфорт 1013.1 964.1
06 20.05 В 3 н/о н/о +29.5 -5.3 10 +26 +26 жарко 1014.7 966.2 +25.0
09 20.05 ЮВ 9 н/о н/о +38.5 -3.4 7 +34 +34 очень
жарко
1013.8 966.7
12 20.05 ЮВ 6 20 км ясно +40.2 -3.9 6
15 20.05 ЮВ 6 20 км ясно +40.2 -3.9 6
18 20.05 ЮВ 2 н/о н/о +34.4 -6.4 7 +30 +30 жарко 1012.0 964.4 +42.0
21 20.05 В 3 н/о н/о +31.3 -6.9 8 +27 +27 жарко 1014.3 966.1
00 21.05 В 2 н/о н/о +26.8 -7.4 10 +24 +24 комфорт 1014.4 965.5
03 21.05 В 2 н/о н/о +24.0 -6.1 13 +22 +22 комфорт 1014.2 964.8
06 21.05 ЮВ 1 н/о н/о +29.4 -5.4 10 +26 +26 жарко 1014.9 966.4 +23.6
09 21.05 ЮВ 7 20 км ясно +36.3 -3.4 8 +32 +37 жарко 967.2
12 21.05 штиль 0 20 км ясно +41.1 -6.2 5 +37 +63 опасность
солнечного
удара
966.4
15 21.05 ЮВ 4 20 км ясно +41.3 -8.3 4 +37 +40 очень
жарко
964.3
18 21.05 штиль 0 10 км ясно +38.0 -3.8 7 +34 +34 очень
жарко
1011.3 964.0 +41.9
21 21.05 В 2 н/о н/о +31.8 -6.5 8 +28 +28 жарко 1013.7 965.6
09 22.05 ЮВ 5 10 км ясно +39.0 -3.0 7 +35 +45 очень
жарко
965.8

 

Местоположение метеостанции Куфра (Ливия): широта 24.22 долгота 23.30 высота над уровнем моря 436 м.

В архиве по умолчанию представлена погода в Куфре за последнюю неделю. Архивные данные за месяц целиком и за предыдущие месяцы, начиная с января 2011 года, Вы можете получить, выбрав интересующий диапазон дат из раскрывающегося списка и нажав кнопку "Ввод!".


*Определитесь, кто Вы:
робот инопланетянин человек

Внимание! Время в таблицах - всемирное. Для получения местного времени необходимо прибавить поправку, которая равна 1 ч.

Смотрите также архив погоды в соседних городах и на ближайших метеорологических станциях:

Погода в Тазирбу (Ливия) (281 км)
Погода в Джалу (Ливия) (562 км)
Погода в Фарафре (Египет) (565 км)
Погода в Сиве (Египет) (589 км)
Погода в Дахле (Египет) (592 км)
Погода в Мараде (Ливия) (704 км)
Погода в Бахарии (Египет) (722 км)
Погода в Харге (Египет) (742 км)
Погода в Фая (Чад) (814 км)
Погода в Асьюте (Египет) (835 км)

Пояснения к столбцам:

Ветер - указаны скорость ветра в м/с - средняя за 10 мин, порывы в срок и между сроками (в фигурных скобках) и направление, откуда дует ветер: С - северный, СВ - северо-восточный, В - восточный, ЮВ - юго-восточный, Ю - южный, ЮЗ - юго-западный, З - западный, СЗ - северо-западный.
Видимость - горизонтальная дальность видимости в метрах или километрах. При видимости от 1 до 10 км при отсутствии осадков обычно наблюдается дымка, при ухудшении видимости до 1 км и менее - туман. В сухую погоду видимость может ухудшаться дымом, пылью или мглою.
Явления - указаны атмосферные явления, наблюдавшиеся в срок или в последний час перед сроком; фигурными скобками обозначены явления, наблюдавшиеся между сроками (за 1-3 часа до срока); квадратными скобками обозначены град или гололедные отложения с указанием их диаметра в мм.
Облачность - указаны через наклонную черту общая и нижняя облачность в баллах и высота нижней границы облаков в метрах; квадратными скобками обозначены формы облаков: Ci - перистые, Cs - перисто-слоистые, Cc - перисто-кучевые, Ac - высококучевые, As - высокослоистые, Sc - слоисто-кучевые, Ns - слоисто-дождевые, Cu - кучевые, Cb - кучево-дождевые. Подробнее классификацию облаков см. в Атласе облаков (PDF).
T - Температура воздуха - температура, измеренная на высоте 2 м над землей.
Td - Температура точки росы - температура, при понижении до которой содержащийся в воздухе водяной пар достигнет насыщения.
f - Относительная влажность воздуха - влажноcть воздуха, измеренная на высоте 2 м над землей.
Te - Эффективная температура - температура, которую ощущает одетый по сезону человек в тени. Характеристика душности погоды. При расчете учитывается влияние влажности воздуха и скорости ветра на теплоощущения человека.
Tes - Эффективная температура на солнце - температура, которую ощущает человек, с поправкой на солнечный нагрев. Характеристика знойности погоды. Зависит от высоты солнца над горизонтом, облачности и скорости ветра. Ночью, в пасмурную погоду, а также при ветре 12 м/с и более поправка равна нулю.
P - Атмосферное давление - приведенное к уровню моря атмосферное давление.
Po - Атмосферное давление - измеренное на уровне метеостанции атмосферное давление.
Tmin - Минимальная температура - минимум температуры воздуха на высоте 2 м над землей.
Tmax - Максимальная температура - максимум температуры воздуха на высоте 2 м над землей.
R - Количество осадков - Количество выпавших осадков за период времени, мм. При наведении курсора мыши на число - период времени, за который выпало указанное количество осадков.
R24 - Количество осадков - Количество выпавших осадков за 24 часа, мм.
S - Снежный покров - Высота снежного покрова, см. При наведении курсора мыши на число - состояние снежного покрова и степень покрытия местности в баллах.